Regional Weather Roundup
Issued by NWS

Home | Current Version | Previous Version | Graphics & Text | Print | Product List | Glossary On
Versions: 1 2 3 4 5 6 7 8 9 10 11 12 13 14 15 16 17 18 19 20 21 22 23 24 25 26 27 28 29 30 31 32 33 34 35 36 37 38 39 40 41 42 43 44 45 46 47 48 49 50
000
ASUS43 KMPX 301410
RWRMN
WEATHER ROUNDUP FOR MINNESOTA
NATIONAL WEATHER SERVICE TWIN CITIES/CHANHASSEN MN
900 AM CDT SUN APR 30 2017


NOTE: "FAIR" INDICATES FEW OR NO CLOUDS BELOW 12,000 FEET WITH NO
SIGNIFICANT WEATHER AND/OR OBSTRUCTIONS TO VISIBILITY. N/A MEANS
CURRENT SKY AND/OR WEATHER CONDITIONS ARE NOT AVAILABLE.

MNZ060>063-068>070-301500-
   Twin Cities Metro

CITY           SKY/WX    TMP DP  RH WIND       PRES   REMARKS
TWIN CITIES    LGT RAIN  43  27  53 NE8       30.02S
ST PAUL        LGT RAIN  43  28  55 NE7       30.04R
CRYSTAL        CLOUDY    43  22  43 NE9       30.03R
BLAINE         CLOUDY    45  25  45 NE10      30.04R
LAKEVILLE      LGT RAIN  37  34  87 NE10      30.00F
EDEN PRAIRIE   CLOUDY    45  25  45 NE13G18   30.00F
SOUTH ST PAUL  LGT RAIN  42  28  58 N8        30.02F
LAKE ELMO      DRIZZLE   43  28  56 N6        30.04R
$$
MNZ001>005-007-008-013>017-022>024-027-028-301500-
   Northwest Minnesota

CITY           SKY/WX    TMP DP  RH WIND       PRES   REMARKS
BEMIDJI        MOSUNNY   44  22  42 NE8       30.14S
HALLOCK        SUNNY     46  30  53 S10       30.14S
ROSEAU         CLOUDY    46  28  49 S8        30.16F
WARROAD        CLOUDY    45  30  57 S6        30.17F
THIEF RVR FALL SUNNY     46  23  40 SE8       30.15F
CROOKSTON      SUNNY     46  27  46 SE6       30.14F
FOSSTON        SUNNY     45  21  39 E8        30.14F
DETROIT LAKES  MOSUNNY   43  19  39 E7        30.12R
MOORHEAD       MOSUNNY   45  25  45 E5        30.13S
PARK RAPIDS    PTSUNNY   44  15  31 E13       30.12R
MAHNOMEN       FAIR      44  23  44 NE10      30.12S
$$
MNZ006-009>011-018-025>026-301500-
   North Central Minnesota

CITY           SKY/WX    TMP DP  RH WIND       PRES   REMARKS
BAUDETTE       MOSUNNY   43  23  45 S6        30.17F
FLAG ISLAND    MOSUNNY   39  28  65 SE10      30.17F
INTL FALLS     MOSUNNY   44  19  36 E7        30.18F
WASKISH        CLOUDY    43  25  49 NE5       30.16F
BIG FORK       CLOUDY    43  21  42 NE3       30.14F
LONGVILLE      CLOUDY    41  18  38 E7        30.13R
GRAND RAPIDS   CLOUDY    41  17  38 E9        30.14F
CRANE LAKE     PTSUNNY   39  23  52 CALM      30.21F
ORR            CLOUDY    45  12  26 SE7       30.13F
COOK           CLOUDY    43  16  33 E7        30.15F
WALKER         FAIR      40  21  45 E10       30.14R
$$
MNZ012-019>021-037-301500-
   Northeast Minnesota

CITY           SKY/WX    TMP DP  RH WIND       PRES   REMARKS
DULUTH         PTSUNNY   42  19  39 E18G26    30.09F
ELY            MOSUNNY   39  18  41 E8        30.16F
HIBBING        CLOUDY    41  16  36 E13G20    30.12F
EVELETH        CLOUDY    42   6  22 NE12      30.13F
DULUTH HARBOR  CLOUDY    39  34  81 NE20      30.12F
TWO HARBORS    MOSUNNY   45  25  45 E9G18     30.10F
SILVER BAY     MOSUNNY   43  21  42 NE12      30.13F
GRAND MARAIS     N/A     43  26  51 E14G20    30.19F
G MARAIS ARPRT CLOUDY    41  16  36 E8        30.17F
$$
MNZ029>031-032-039>041-046>048-054>057-064-301500-
   West Central Minnesota

CITY           SKY/WX    TMP DP  RH WIND       PRES   REMARKS
FERGUS FALLS   CLOUDY    45  21  39 E8        30.10S
WHEATON        CLOUDY    45  21  39 NE8       30.10F
MORRIS         CLOUDY    43  25  49 NE9       30.06F
ALEXANDRIA     CLOUDY    40  22  48 NE12      30.08R
ELBOW LAKE     FAIR      44  24  47 NE9       30.08F
WADENA         MOSUNNY   41  19  42 E12       30.11R
GLENWOOD       CLOUDY    41  21  45 NE15      30.04F
APPLETON       CLOUDY    45  25  45 NE13      30.04F
BENSON         CLOUDY    45  16  31 E10       30.06F
ORTONVILLE     CLOUDY    43  27  52 NE15      30.06S
MADISON        CLOUDY    45  28  53 N13       30.04S
WILLMAR        FAIR      43  25  49 NE12      30.03F
$$
MNZ033>034-036-042>043-049>051-058-059-301500-
   Central Minnesota

CITY           SKY/WX    TMP DP  RH WIND       PRES   REMARKS
ST CLOUD       CLOUDY    40  23  50 NE7       30.07R
SAUK CENTRE    FAIR      40  22  48 NE13      30.05F
PAYNESVILLE    CLOUDY    40  21  46 NE14      30.04F
AITKIN         PTSUNNY   43  16  33 E8        30.11R
PINE RIVER     PTSUNNY   41  21  45 E8        30.15R
BRAINERD       PTSUNNY   39  20  46 E9        30.12R
STAPLES        MOSUNNY   39  18  41 NE5       30.11R
LONG PRAIRIE   FAIR      39  23  52 N8        30.07F
LITTLE FALLS   CLOUDY    39  21  48 NE6       30.09R
LITCHFIELD     CLOUDY    41  27  56 NE10      30.02F
BUFFALO        CLOUDY    40  24  51 N10       30.04F
MAPLE LAKE     CLOUDY    41  25  52 NE13      30.05F
HUTCHINSON     LGT RAIN  41  28  60 NE15      30.02F
$$
MNZ037-044-045-052-053-301500-
   East Central Minnesota

CITY           SKY/WX    TMP DP  RH WIND       PRES   REMARKS
PRINCETON      CLOUDY    41  25  52 N8        30.07R
MORA           CLOUDY    37  23  56 NE7       30.10R
CAMBRIDGE      CLOUDY    43  27  52 NE8       30.06R
RUSH CITY      CLOUDY    40  25  54 NE7       30.08R
MOOSE LAKE     CLOUDY    39  23  52 NE9       30.09R
HINCKLEY       CLOUDY    41  27  56 NE7       30.09R
CLOQUET        PTSUNNY   41  10  28 E14G22    30.09F
MCGREGOR       CLOUDY    41  23  48 E10       30.11R
$$
MNZ071>073-080-081-089-090-097-098-301500-
   Southwest Minnesota

CITY           SKY/WX    TMP DP  RH WIND       PRES   REMARKS
MONTEVIDEO     CLOUDY    43  27  52 E10G17    30.03S
GRANITE FALLS  CLOUDY    43  29  58 N15       30.03R
CANBY          PTSUNNY   43  30  60 N8        30.04S
MARSHALL       CLOUDY    42  28  57 NE12      30.02R
REDWOOD FALLS  CLOUDY    43  25  49 NE9       30.00F
OLIVIA         CLOUDY    41  27  56 NE12G17   30.01R
PIPESTONE      LGT RAIN  37  30  75 NE7       29.98R
WINDOM         RAIN      37  34  87 NE14      29.96S
WORTHINGTON    LGT RAIN  36  34  92 NE20      29.94S
JACKSON        RAIN      36  34  93 NE18      29.94S
TRACY          LGT RAIN  41  32  70 NE9       30.00R
SLAYTON        LGT RAIN  36  33  88 NE7       29.98R
$$
MNZ065>067-074>077-082>085-091>093-301500-
   South Central Minnesota

CITY           SKY/WX    TMP DP  RH WIND       PRES   REMARKS
MANKATO        LGT RAIN  39  34  82 NE15      29.97F
NEW ULM        LGT RAIN  39  32  75 N6        29.99R
ST JAMES       LGT RAIN  37  36  93 N13       29.98S
FAIRMONT       CLOUDY    39  36  89 NE15      29.95R
GLENCOE        LGT RAIN  42  32  67 N6        29.99F
FARIBAULT      LGT RAIN  39  34  81 N9G17     29.97F
OWATONNA       DRIZZLE   39  32  75 N13       29.96R
WASECA         CLOUDY    39  34  81 NE15G21   29.97S
ALBERT LEA     CLOUDY    39  30  70 NE14      29.92F
$$
MNZ078>079-086>088-094>096-301500-
   Southeast Minnesota

CITY           SKY/WX    TMP DP  RH WIND       PRES   REMARKS
ROCHESTER      LGT RAIN  40  31  70 NE14G26   29.93F
RED WING       LGT RAIN  45  27  49 E7        30.00R
STANTON        LGT RAIN  42  32  67 NE13      29.97S
DODGE CENTER   LGT RAIN  41  30  65 NE13      29.93F
WINONA         CLOUDY    43  32  65 E12G17    29.97F
AUSTIN         CLOUDY    41  28  60 NE13G21   29.92R
PRESTON        CLOUDY    40  31  70 NE13G22   29.92F
$$
ABBREVIATIONS USED IN REMARKS
   TC - TEMPERATURES IN CELSIUS
  WCI - WIND CHILL INDEX
   HX - HEAT INDEX
  VSB - VISIBILITY
$$




USA.gov is the U.S. government's official web portal to all federal, state and local government web resources and services.